Regional Weather Roundup
Issued by NWS Upton, NY

Home | Current Version | Previous Version | Text Only | Print | Product List | Glossary On
Versions: 1 2 3 4 5 6 7 8 9 10 11 12 13 14 15 16 17 18 19 20 21 22 23 24 25 26 27 28 29 30 31 32 33 34 35 36 37 38 39 40 41 42 43 44 45 46 47 48 49 50
000
ASUS41 KOKX 060208
RWROKX

REGIONAL WEATHER ROUNDUP
NATIONAL WEATHER SERVICE NEW YORK NY
900 PM EST MON DEC 05 2016

NOTE: "FAIR" INDICATES FEW OR NO CLOUDS BELOW 12,000 FEET WITH NO
SIGNIFICANT WEATHER AND/OR OBSTRUCTIONS TO VISIBILITY.

NYZ071-072-176-178-NJZ106-104-060300-
NEW YORK CITY METRO AREA

CITY           SKY/WX    TMP DP  RH WIND       PRES   REMARKS
Central Park   CLEAR     45  32  60 W6        30.10R
Wall St Helipt CLOUDY    46  35  65 SW8       30.10R
Bronx Bot Gard NOT AVBL
LaGuardia APRT PTCLDY    47  32  56 NW9       30.08R
Kennedy INTL   MOCLDY    46  30  53 NW12      30.09R
Breezy Point     N/A     45 N/A N/A NW5         N/A
Newark/Liberty MOCLDY    43  34  70 W5        30.09R
Teterboro      PTCLDY    41  32  70 SW5       30.08R
$$

NYZ177-179-078>081-060300-
LONG ISLAND NEW YORK

CITY           SKY/WX    TMP DP  RH WIND       PRES   REMARKS
Jones Beach      N/A     45 N/A N/A NW9         N/A
Matinecock PT  NOT AVBL
Farmingdale    CLOUDY    42  28  57 W5        30.08R
MacArthur/ISP  CLOUDY    41  30  65 NW8       30.06R
Shirley        CLOUDY    34  31  88 NW5       30.06R WCI  30
Westhampton    CLEAR     30  28  92 NW3       30.06R
Southampton    NOT AVBL
Bridgehampton  NOT AVBL
East Hampton     N/A     41  32  71 NW6       30.03R
Montauk          N/A     45  32  60 NW13G22   30.03S
$$

NYZ052-065-067-060300-
HUDSON VALLEY

CITY           SKY/WX    TMP DP  RH WIND       PRES   REMARKS
White Plains   CLEAR     36  27  69 W3        30.05R
Newburgh       PTCLDY    39  30  70 NW12      30.06R WCI  32
Montgomery     CLEAR     39  28  64 NW7       30.06R WCI  34
Poughkeepsie   CLEAR     37  28  70 W8        30.05R WCI  31
Albany         CLOUDY    39  31  72 W7        30.03R WCI  34
$$

NJZ001-105-106-008-010-013-015-019>022-104-060300-
NEW JERSEY

CITY           SKY/WX    TMP DP  RH WIND       PRES   REMARKS
Newark/Liberty MOCLDY    43  34  70 W5        30.09R
Teterboro      PTCLDY    41  32  70 SW5       30.08R
Caldwell       CLOUDY    35  31  85 CALM      30.09R
Somerville     PTCLDY    33  29  85 CALM      30.08R
Linden           N/A     40  33  76 CALM      30.09R
Sussex         PTCLDY    30  29  96 CALM      30.07R
Andover          N/A     31  29  92 CALM      30.08R
Trenton        PTCLDY    40  33  76 W3        30.10R
Millville      CLOUDY    35  35 100 CALM      30.10R
Atlantic City  CLOUDY    38  33  82 CALM      30.09R
Wrightstown    CLOUDY    37  33  83 W5        30.07R WCI  34
Toms River     CLOUDY    31  29  92 CALM      30.10R
Belmar         PTCLDY    37  33  85 W5        30.10R WCI  33
$$

PAZ047>061-062-071-060300-
EASTERN PENNSYLVANIA

CITY           SKY/WX    TMP DP  RH WIND       PRES   REMARKS
Philadelphia   CLOUDY    43  32  65 NW8       30.11R
Allentown      MOCLDY    37  28  70 SW3       30.10R
Scranton       CLOUDY    38  29  70 SW6       30.07R WCI  33
$$

CTZ002-004>006-009-010-012-RIZ004-006-007-MAZ004-011-015-060300-
SOUTHERN NEW ENGLAND
 IN CT

CITY           SKY/WX    TMP DP  RH WIND       PRES   REMARKS
Bradley INTL   CLOUDY    39  30  70 W7        30.02R WCI  34
Hartford       CLOUDY    41  32  70 W7        30.03R
Danbury        NOT AVBL
Wtrbury/Oxford PTCLDY    37  27  65 CALM      30.04R
Bridgeport     PTCLDY    41  31  67 W6        30.05R
Meriden        CLOUDY    32  29  88 CALM      30.05R
New Haven      PTCLDY    40  33  76 W3        30.05R
Chester        MOCLDY    37  32  81 W5        30.03R WCI  34
Groton         PTCLDY    42  34  73 W9        30.03R
Wilimantic     PTCLDY    31  30  96 CALM      30.03R FOG

 IN RI

CITY           SKY/WX    TMP DP  RH WIND       PRES   REMARKS
Providence     CLEAR     40  30  67 W13       29.99R WCI  32
Block Island   CLEAR     44  33  65 NW17G25   30.00S
Westerly       CLEAR     38  30  73 CALM      30.03R
 IN MA

CITY           SKY/WX    TMP DP  RH WIND       PRES   REMARKS
Boston         CLEAR     39  33  79 W10       29.97R WCI  32
Worcester      MOCLDY    32  29  88 W10       29.97R WCI  24
Westfield      CLOUDY    34  33  96 CALM      30.02R
Provincetown   CLEAR     43  35  73 NW24G31   29.94S
Nantucket      CLEAR     41  33  73 NW15G22   29.96R
$$

ANZ330-335-338-340-345-350-353-355-060300-
COASTAL MARINE OBSERVATIONS


STATION/POSITION TIME  SKY/WX   TEMP    WIND        PRES    VSBY  WAVE
                                AIR SEA DIR/SP/G                  HT/PER
                 (UTC)          (F)     (DEG/KT/KT) (MB)    (MI)  (FT/S)
NY HARB ENTRANCE 0050            48 53  310/ 12/ 14 1017.6          2/ 3
20 S FIRE ISLAND 0050            48 54  330/ 17/ 21 1017.1          3/ 4
GREAT SOUTH BAY  NOT AVBL
23 SSW MONTAUK P 0050            48 54  310/ 17/ 21 1016.7          3/ 5
15 E BARNEGAT LI 0130               54                N/A           2/ 4
HUDSON CANYON    0050            51 58              1016.4          5/ 6
KINGS POINT      0124            45 48              1017.8
EXECUTION ROCKS  0145            45     290/  6/ 10   N/A
CENTRAL LI SOUND 0130            46 50  290/ 12/ 16   N/A           2/ 4
EASTERN LI SOUND NOT AVBL
ROBBINS REEF     0124            45     300/  5/  5 1018.5
$$


>>>>>>>>>>>>>>>>>>>>>>>>>>>> KEY <<<<<<<<<<<<<<<<<<<<<<<<<<<
>                                                          <
>     SKY/WX - Sky Condition/Present Weather               <
>     TMP    - Temperature in Fahrenheit                   <
>     DP     - Dew Point in Fahrenheit                     <
>     RH     - Relative Humidity in Percent                <
>     WIND   - Direction (from) and Speed in MPH           <
>     PRES   - Mean Sea Level Pressure (inches of Hg)      <
>     WCI    - Wind Chill Index                            <
>     VSB    - VISIBILITY IN MILES                         <
>     HX     - HEAT INDEX                                  <
>     TC     - TEMPERATURE IN CELSIUS                      <
>     VRB    - VARIABLE WIND DIRECTION                     <
>                                                          <
>>>>>>>>>>>>>>>>>>>>>>>>>>>> KEY <<<<<<<<<<<<<<<<<<<<<<<<<<<



USA.gov is the U.S. government's official web portal to all federal, state and local government web resources and services.